Time,TemperatureF,DewpointF,PressureIn,WindDirection,WindDirectionDegrees,WindSpeedMPH,WindSpeedGustMPH,Humidity,HourlyPrecipIn,Conditions,Clouds,dailyrainin,SoftwareType,DateUTC
2013-06-23 00:00:00,79.5,68.9,29.71,NNE,19,1.0,8.0,70,0.00,,---,0.02,VWS V14.01,2013-06-23 05:00:00,
2013-06-23 00:06:00,79.4,68.8,29.71,East,95,0.0,5.0,70,0.00,,---,0.00,VWS V14.01,2013-06-23 05:06:00,
2013-06-23 00:12:00,79.3,68.7,29.70,ESE,107,0.0,5.0,70,0.00,,---,0.00,VWS V14.01,2013-06-23 05:12:00,
2013-06-23 00:18:00,79.2,68.6,29.70,East,96,0.0,7.0,70,0.00,,---,0.00,VWS V14.01,2013-06-23 05:18:00,
2013-06-23 00:24:00,79.2,68.6,29.69,ESE,106,4.0,7.0,70,0.00,,---,0.00,VWS V14.01,2013-06-23 05:24:00,
2013-06-23 00:30:00,79.0,68.4,29.69,ESE,117,0.0,7.0,70,0.00,,---,0.00,VWS V14.01,2013-06-23 05:30:00,
2013-06-23 00:36:00,78.8,68.2,29.68,SE,137,0.0,5.0,70,0.00,,---,0.00,VWS V14.01,2013-06-23 05:36:00,
2013-06-23 00:42:00,78.7,68.1,29.68,SSE,167,1.0,5.0,70,0.00,,---,0.00,VWS V14.01,2013-06-23 05:42:00,
2013-06-23 00:48:00,78.7,68.1,29.69,ESE,107,0.0,5.0,70,0.00,,---,0.00,VWS V14.01,2013-06-23 05:48:00,
2013-06-23 00:55:00,78.5,67.9,29.69,SE,129,0.0,5.0,70,0.00,,---,0.00,VWS V14.01,2013-06-23 05:55:00,
2013-06-23 01:01:00,78.4,67.8,29.68,SE,133,6.0,7.0,70,0.00,,---,0.00,VWS V14.01,2013-06-23 06:01:00,
2013-06-23 01:07:00,78.2,67.6,29.69,East,94,1.0,9.0,70,0.00,,---,0.00,VWS V14.01,2013-06-23 06:07:00,
2013-06-23 01:13:00,78.1,67.5,29.68,ESE,113,0.0,9.0,70,0.00,,---,0.00,VWS V14.01,2013-06-23 06:13:00,
2013-06-23 01:19:00,77.9,67.3,29.69,SE,133,0.0,9.0,70,0.00,,---,0.00,VWS V14.01,2013-06-23 06:19:00,
2013-06-23 01:25:00,77.8,67.2,29.68,ESE,121,0.0,9.0,70,0.00,,---,0.00,VWS V14.01,2013-06-23 06:25:00,
2013-06-23 01:30:00,77.8,67.7,29.68,East,85,0.0,9.0,71,0.00,,---,0.00,VWS V14.01,2013-06-23 06:30:00,
2013-06-23 01:37:00,77.7,68.0,29.69,East,83,0.0,5.0,72,0.00,,---,0.00,VWS V14.01,2013-06-23 06:37:00,
2013-06-23 01:43:00,77.5,68.2,29.69,ESE,113,0.0,5.0,73,0.00,,---,0.00,VWS V14.01,2013-06-23 06:43:00,
2013-06-23 01:49:00,77.4,68.5,29.69,ESE,113,0.0,5.0,74,0.00,,---,0.00,VWS V14.01,2013-06-23 06:49:00,
2013-06-23 01:55:00,77.3,68.8,29.69,SSE,161,1.0,6.0,75,0.00,,---,0.00,VWS V14.01,2013-06-23 06:55:00,
2013-06-23 02:01:00,77.3,69.2,29.69,SE,126,0.0,6.0,76,0.00,,---,0.00,VWS V14.01,2013-06-23 07:01:00,
2013-06-23 02:07:00,77.2,69.1,29.69,ESE,109,0.0,5.0,76,0.00,,---,0.00,VWS V14.01,2013-06-23 07:07:00,
2013-06-23 02:13:00,77.1,69.0,29.68,SSE,149,0.0,6.0,76,0.00,,---,0.00,VWS V14.01,2013-06-23 07:13:00,
2013-06-23 02:19:00,77.0,68.9,29.68,NE,52,0.0,7.0,76,0.00,,---,0.00,VWS V14.01,2013-06-23 07:19:00,
2013-06-23 02:25:00,77.0,68.9,29.68,SSW,198,0.0,7.0,76,0.00,,---,0.00,VWS V14.01,2013-06-23 07:25:00,
2013-06-23 02:30:00,77.0,68.9,29.68,ESE,112,0.0,10.0,76,0.00,,---,0.00,VWS V14.01,2013-06-23 07:30:00,
2013-06-23 02:37:00,76.9,68.8,29.68,SSW,195,0.0,4.0,76,0.00,,---,0.00,VWS V14.01,2013-06-23 07:37:00,
2013-06-23 02:43:00,76.8,68.7,29.68,East,84,0.0,4.0,76,0.00,,---,0.00,VWS V14.01,2013-06-23 07:43:00,
2013-06-23 02:49:00,76.9,68.8,29.68,North,5,4.0,5.0,76,0.00,,---,0.00,VWS V14.01,2013-06-23 07:49:00,
2013-06-23 02:55:00,76.9,68.8,29.67,NE,40,2.0,5.0,76,0.00,,---,0.00,VWS V14.01,2013-06-23 07:55:00,
2013-06-23 03:00:00,76.9,68.8,29.67,SSW,194,2.0,5.0,76,0.00,,---,0.00,VWS V14.01,2013-06-23 08:00:00,
2013-06-23 03:06:00,76.9,68.8,29.68,ESE,109,1.0,4.0,76,0.00,,---,0.00,VWS V14.01,2013-06-23 08:06:00,
2013-06-23 03:12:00,77.0,68.5,29.69,East,101,6.0,6.0,75,0.00,,---,0.00,VWS V14.01,2013-06-23 08:12:00,
2013-06-23 03:18:00,77.0,68.9,29.69,WSW,245,1.0,6.0,76,0.00,,---,0.00,VWS V14.01,2013-06-23 08:18:00,
2013-06-23 03:24:00,76.9,68.4,29.69,ESE,121,0.0,9.0,75,0.00,,---,0.00,VWS V14.01,2013-06-23 08:24:00,
2013-06-23 03:30:00,76.9,68.4,29.69,WSW,246,0.0,9.0,75,0.00,,---,0.00,VWS V14.01,2013-06-23 08:30:00,
2013-06-23 03:36:00,76.8,68.7,29.70,South,175,0.0,3.0,76,0.00,,---,0.00,VWS V14.01,2013-06-23 08:36:00,
2013-06-23 03:42:00,76.7,68.6,29.71,SE,125,0.0,3.0,76,0.00,,---,0.00,VWS V14.01,2013-06-23 08:42:00,
2013-06-23 03:48:00,76.6,68.5,29.74,SW,223,0.0,3.0,76,0.00,,---,0.00,VWS V14.01,2013-06-23 08:48:00,
2013-06-23 03:54:00,76.7,68.6,29.75,WSW,254,3.0,4.0,76,0.00,,---,0.00,VWS V14.01,2013-06-23 08:54:00,
2013-06-23 04:00:00,76.8,68.3,29.74,SW,227,0.0,4.0,75,0.00,,---,0.00,VWS V14.01,2013-06-23 09:00:00,
2013-06-23 04:06:00,76.7,68.2,29.75,WSW,254,1.0,4.0,75,0.00,,---,0.00,VWS V14.01,2013-06-23 09:06:00,
2013-06-23 04:12:00,76.8,68.3,29.75,West,262,0.0,4.0,75,0.00,,---,0.00,VWS V14.01,2013-06-23 09:12:00,
2013-06-23 04:18:00,76.7,68.2,29.75,WNW,287,4.0,5.0,75,0.00,,---,0.00,VWS V14.01,2013-06-23 09:18:00,
2013-06-23 04:24:00,75.7,67.2,29.75,NW,308,8.0,17.0,75,0.01,,---,0.01,VWS V14.01,2013-06-23 09:24:00,
2013-06-23 04:30:00,73.0,65.7,29.77,NNW,343,4.0,19.0,78,0.01,,---,0.01,VWS V14.01,2013-06-23 09:30:00,
2013-06-23 04:36:00,71.1,65.3,29.75,WNW,283,11.0,12.0,82,0.09,,---,0.09,VWS V14.01,2013-06-23 09:36:00,
2013-06-23 04:42:00,69.5,64.5,29.78,WNW,292,6.0,17.0,84,0.20,,---,0.20,VWS V14.01,2013-06-23 09:42:00,
2013-06-23 04:48:00,68.1,63.8,29.78,WNW,284,5.0,17.0,86,0.40,,---,0.40,VWS V14.01,2013-06-23 09:48:00,
2013-06-23 04:54:00,67.3,63.6,29.79,West,265,7.0,17.0,88,0.49,,---,0.49,VWS V14.01,2013-06-23 09:54:00,
2013-06-23 05:00:00,66.9,63.6,29.82,WSW,250,4.0,17.0,89,0.51,,---,0.51,VWS V14.01,2013-06-23 10:00:00,
2013-06-23 05:06:00,66.6,63.6,29.81,West,281,6.0,12.0,90,0.71,,---,0.71,VWS V14.01,2013-06-23 10:06:00,
2013-06-23 05:12:00,66.4,63.4,29.79,NW,313,12.0,18.0,90,0.84,,---,0.84,VWS V14.01,2013-06-23 10:12:00,
2013-06-23 05:18:00,66.0,63.3,29.77,NW,326,5.0,18.0,91,0.91,,---,0.91,VWS V14.01,2013-06-23 10:18:00,
2013-06-23 05:24:00,65.8,63.1,29.77,North,355,7.0,18.0,91,0.93,,---,0.93,VWS V14.01,2013-06-23 10:24:00,
2013-06-23 05:30:00,65.7,63.3,29.78,North,360,7.0,18.0,92,0.93,,---,0.93,VWS V14.01,2013-06-23 10:30:00,
2013-06-23 05:37:00,65.6,63.2,29.77,NNW,329,8.0,14.0,92,0.92,,---,0.93,VWS V14.01,2013-06-23 10:37:00,
2013-06-23 05:43:00,65.6,63.2,29.79,WNW,303,5.0,14.0,92,0.92,,---,0.93,VWS V14.01,2013-06-23 10:43:00,
2013-06-23 05:49:00,65.6,63.2,29.80,WNW,291,5.0,14.0,92,0.92,,---,0.93,VWS V14.01,2013-06-23 10:49:00,
2013-06-23 05:55:00,65.5,63.1,29.80,NW,318,7.0,15.0,92,0.92,,---,0.93,VWS V14.01,2013-06-23 10:55:00,
2013-06-23 06:00:00,65.5,63.1,29.82,NW,304,5.0,15.0,92,0.94,,---,0.95,VWS V14.01,2013-06-23 11:00:00,
2013-06-23 06:07:00,65.6,63.2,29.85,West,259,0.0,6.0,92,0.44,,---,0.95,VWS V14.01,2013-06-23 11:07:00,
2013-06-23 06:13:00,65.6,63.2,29.85,West,275,2.0,6.0,92,0.44,,---,0.95,VWS V14.01,2013-06-23 11:13:00,
2013-06-23 06:19:00,65.6,63.2,29.86,West,275,0.0,6.0,92,0.44,,---,0.95,VWS V14.01,2013-06-23 11:19:00,
2013-06-23 06:25:00,65.5,63.1,29.89,SSW,205,0.0,6.0,92,0.46,,---,0.97,VWS V14.01,2013-06-23 11:25:00,
2013-06-23 06:31:00,65.4,63.3,29.87,SSW,207,1.0,6.0,93,0.47,,---,0.98,VWS V14.01,2013-06-23 11:31:00,
2013-06-23 06:37:00,65.3,63.2,29.84,North,360,3.0,5.0,93,0.06,,---,0.99,VWS V14.01,2013-06-23 11:37:00,
2013-06-23 06:43:00,65.2,63.1,29.82,NE,43,7.0,8.0,93,0.08,,---,1.01,VWS V14.01,2013-06-23 11:43:00,
2013-06-23 06:49:00,65.1,63.0,29.80,NNE,24,0.0,9.0,93,0.09,,---,1.02,VWS V14.01,2013-06-23 11:49:00,
2013-06-23 06:55:00,65.0,62.9,29.79,NNE,29,1.0,9.0,93,0.11,,---,1.04,VWS V14.01,2013-06-23 11:55:00,
2013-06-23 07:00:00,64.9,62.8,29.79,NNE,28,0.0,9.0,93,0.12,,---,1.05,VWS V14.01,2013-06-23 12:00:00,
2013-06-23 07:07:00,64.7,62.6,29.77,East,90,1.0,5.0,93,0.11,,---,1.06,VWS V14.01,2013-06-23 12:07:00,
2013-06-23 07:13:00,64.7,62.6,29.77,ESE,109,1.0,5.0,93,0.12,,---,1.07,VWS V14.01,2013-06-23 12:13:00,
2013-06-23 07:19:00,64.4,62.3,29.74,East,85,2.0,8.0,93,0.12,,---,1.07,VWS V14.01,2013-06-23 12:19:00,
2013-06-23 07:25:00,64.2,62.1,29.71,ESE,115,4.0,8.0,93,0.12,,---,1.07,VWS V14.01,2013-06-23 12:25:00,
2013-06-23 07:30:00,64.1,62.0,29.68,ESE,111,5.0,8.0,93,0.12,,---,1.07,VWS V14.01,2013-06-23 12:30:00,
2013-06-23 07:37:00,64.1,62.0,29.68,ESE,116,5.0,13.0,93,0.09,,---,1.07,VWS V14.01,2013-06-23 12:37:00,
2013-06-23 07:43:00,64.2,62.1,29.66,East,94,5.0,15.0,93,0.09,,---,1.07,VWS V14.01,2013-06-23 12:43:00,
2013-06-23 07:49:00,64.1,62.0,29.67,ESE,107,3.0,15.0,93,0.09,,---,1.07,VWS V14.01,2013-06-23 12:49:00,
2013-06-23 07:56:00,64.1,62.0,29.68,ENE,78,4.0,15.0,93,0.09,,---,1.07,VWS V14.01,2013-06-23 12:56:00,
2013-06-23 08:01:00,64.2,62.1,29.69,ESE,114,9.0,15.0,93,0.09,,---,1.07,VWS V14.01,2013-06-23 13:01:00,
2013-06-23 08:06:00,64.3,62.2,29.72,ESE,123,0.0,15.0,93,0.02,,---,1.07,VWS V14.01,2013-06-23 13:06:00,
2013-06-23 08:12:00,64.4,62.3,29.74,SE,127,5.0,15.0,93,0.02,,---,1.07,VWS V14.01,2013-06-23 13:12:00,
2013-06-23 08:18:00,64.6,62.5,29.72,East,90,2.0,15.0,93,0.02,,---,1.07,VWS V14.01,2013-06-23 13:18:00,
2013-06-23 08:24:00,64.7,62.3,29.71,ESE,119,3.0,15.0,92,0.02,,---,1.07,VWS V14.01,2013-06-23 13:24:00,
2013-06-23 08:30:00,64.8,62.4,29.69,East,95,7.0,15.0,92,0.02,,---,1.07,VWS V14.01,2013-06-23 13:30:00,
2013-06-23 08:36:00,64.8,62.4,29.72,ESE,118,0.0,11.0,92,0.00,,---,1.07,VWS V14.01,2013-06-23 13:36:00,
2013-06-23 08:42:00,65.0,62.6,29.73,ESE,107,7.0,11.0,92,0.00,,---,1.07,VWS V14.01,2013-06-23 13:42:00,
2013-06-23 08:48:00,65.1,62.7,29.74,East,97,6.0,11.0,92,0.00,,---,1.07,VWS V14.01,2013-06-23 13:48:00,
2013-06-23 08:54:00,65.1,62.7,29.75,ESE,109,3.0,11.0,92,0.00,,---,1.07,VWS V14.01,2013-06-23 13:54:00,
2013-06-23 09:00:00,65.1,62.7,29.75,SE,134,7.0,11.0,92,0.00,,---,1.07,VWS V14.01,2013-06-23 14:00:00,
2013-06-23 09:06:00,65.1,62.4,29.75,ESE,117,4.0,9.0,91,0.00,,---,1.07,VWS V14.01,2013-06-23 14:06:00,
2013-06-23 09:12:00,65.1,62.4,29.75,ESE,117,4.0,9.0,91,0.00,,---,1.07,VWS V14.01,2013-06-23 14:12:00,
2013-06-23 09:18:00,65.2,62.5,29.76,ESE,118,4.0,9.0,91,0.00,,---,1.07,VWS V14.01,2013-06-23 14:18:00,
2013-06-23 09:24:00,65.2,62.5,29.75,ESE,107,0.0,9.0,91,0.00,,---,1.07,VWS V14.01,2013-06-23 14:24:00,
2013-06-23 09:30:00,65.2,62.5,29.76,ESE,119,5.0,9.0,91,0.00,,---,1.07,VWS V14.01,2013-06-23 14:30:00,
2013-06-23 09:36:00,65.3,62.6,29.76,ESE,121,7.0,10.0,91,0.00,,---,1.07,VWS V14.01,2013-06-23 14:36:00,
2013-06-23 09:43:00,65.4,62.7,29.77,ESE,118,0.0,10.0,91,0.00,,---,1.07,VWS V14.01,2013-06-23 14:43:00,
2013-06-23 09:49:00,65.5,62.5,29.78,ESE,111,3.0,10.0,90,0.00,,---,1.07,VWS V14.01,2013-06-23 14:49:00,
2013-06-23 09:55:00,65.5,62.8,29.78,ESE,113,4.0,10.0,91,0.00,,---,1.07,VWS V14.01,2013-06-23 14:55:00,
2013-06-23 10:00:00,65.5,62.8,29.78,SE,128,2.0,10.0,91,0.00,,---,1.07,VWS V14.01,2013-06-23 15:00:00,
2013-06-23 10:07:00,65.6,62.9,29.79,ESE,117,0.0,6.0,91,0.00,,---,1.07,VWS V14.01,2013-06-23 15:07:00,
2013-06-23 10:13:00,65.7,62.7,29.80,ESE,121,0.0,6.0,90,0.00,,---,1.07,VWS V14.01,2013-06-23 15:13:00,
2013-06-23 10:19:00,65.7,62.7,29.80,ESE,119,0.0,6.0,90,0.00,,---,1.07,VWS V14.01,2013-06-23 15:19:00,
2013-06-23 10:25:00,65.9,62.9,29.80,ESE,119,0.0,6.0,90,0.00,,---,1.07,VWS V14.01,2013-06-23 15:25:00,
2013-06-23 10:37:00,66.5,63.8,29.80,ESE,119,0.0,0.0,91,0.00,,---,1.07,VWS V14.01,2013-06-23 15:37:00,
2013-06-23 10:43:00,66.9,64.2,29.80,SSW,205,0.0,2.0,91,0.00,,---,1.07,VWS V14.01,2013-06-23 15:43:00,
2013-06-23 10:49:00,67.2,64.2,29.80,SSW,205,0.0,2.0,90,0.00,,---,1.07,VWS V14.01,2013-06-23 15:49:00,
2013-06-23 10:55:00,67.6,64.6,29.80,NW,310,0.0,2.0,90,0.00,,---,1.07,VWS V14.01,2013-06-23 15:55:00,
2013-06-23 11:01:00,68.2,65.2,29.80,NW,310,0.0,2.0,90,0.00,,---,1.07,VWS V14.01,2013-06-23 16:01:00,
2013-06-23 11:07:00,69.0,65.9,29.80,NW,309,2.0,2.0,90,0.00,,---,1.07,VWS V14.01,2013-06-23 16:07:00,
2013-06-23 11:13:00,69.4,65.7,29.80,West,263,0.0,3.0,88,0.00,,---,1.07,VWS V14.01,2013-06-23 16:13:00,
2013-06-23 11:19:00,70.0,66.6,29.80,West,263,0.0,3.0,89,0.00,,---,1.07,VWS V14.01,2013-06-23 16:19:00,
2013-06-23 11:25:00,70.6,66.9,29.80,West,263,0.0,3.0,88,0.00,,---,1.07,VWS V14.01,2013-06-23 16:25:00,
2013-06-23 11:30:00,70.8,67.1,29.81,West,263,0.0,3.0,88,0.00,,---,1.07,VWS V14.01,2013-06-23 16:30:00,
2013-06-23 11:35:00,70.8,66.4,29.81,SSW,197,1.0,2.0,86,0.00,,---,1.07,VWS V14.01,2013-06-23 16:35:00,
2013-06-23 11:42:00,71.1,66.7,29.81,SSW,198,0.0,2.0,86,0.00,,---,1.07,VWS V14.01,2013-06-23 16:42:00,
2013-06-23 11:48:00,71.5,67.1,29.81,SSW,198,0.0,3.0,86,0.00,,---,1.07,VWS V14.01,2013-06-23 16:48:00,
2013-06-23 11:54:00,71.8,67.1,29.82,SSW,198,0.0,3.0,85,0.00,,---,1.07,VWS V14.01,2013-06-23 16:54:00,
2013-06-23 11:58:00,71.9,66.8,29.82,SW,217,0.0,3.0,84,0.00,,---,1.07,VWS V14.01,2013-06-23 16:58:00,
2013-06-23 12:00:00,72.0,66.9,29.82,SW,217,1.0,3.0,84,0.00,,---,1.07,VWS V14.01,2013-06-23 17:00:00,
2013-06-23 12:02:00,72.0,66.9,29.82,SW,217,0.0,0.0,84,0.00,,---,1.07,VWS V14.01,2013-06-23 17:02:00,
2013-06-23 12:08:00,72.2,67.1,29.82,SW,218,0.0,3.0,84,0.00,,---,1.07,VWS V14.01,2013-06-23 17:08:00,
2013-06-23 12:10:00,72.4,67.6,29.82,SW,218,0.0,3.0,85,0.00,,---,1.07,VWS V14.01,2013-06-23 17:10:00,
2013-06-23 12:12:00,72.5,67.4,29.82,SW,218,0.0,3.0,84,0.00,,---,1.07,VWS V14.01,2013-06-23 17:12:00,
2013-06-23 12:18:00,72.6,66.8,29.82,SW,218,0.0,3.0,82,0.00,,---,1.07,VWS V14.01,2013-06-23 17:18:00,
2013-06-23 12:24:00,72.4,66.6,29.82,SW,219,0.0,3.0,82,0.00,,---,1.07,VWS V14.01,2013-06-23 17:24:00,
2013-06-23 12:30:00,72.4,66.9,29.82,WSW,238,0.0,3.0,83,0.00,,---,1.07,VWS V14.01,2013-06-23 17:30:00,
2013-06-23 12:36:00,72.9,67.8,29.82,West,265,1.0,1.0,84,0.00,,---,1.07,VWS V14.01,2013-06-23 17:36:00,
2013-06-23 12:42:00,73.5,68.4,29.82,SSW,200,0.0,3.0,84,0.00,,---,1.07,VWS V14.01,2013-06-23 17:42:00,
2013-06-23 12:48:00,73.9,68.1,29.82,WSW,239,1.0,3.0,82,0.00,,---,1.07,VWS V14.01,2013-06-23 17:48:00,
2013-06-23 12:54:00,74.1,68.6,29.82,SW,234,1.0,4.0,83,0.00,,---,1.07,VWS V14.01,2013-06-23 17:54:00,
2013-06-23 13:00:00,74.4,68.6,29.81,West,265,0.0,4.0,82,0.00,,---,1.07,VWS V14.01,2013-06-23 18:00:00,
2013-06-23 13:06:00,74.3,67.7,29.81,West,266,1.0,1.0,80,0.00,,---,1.07,VWS V14.01,2013-06-23 18:06:00,
2013-06-23 13:12:00,74.3,68.1,29.81,West,265,0.0,1.0,81,0.00,,---,1.07,VWS V14.01,2013-06-23 18:12:00,
2013-06-23 13:18:00,74.3,68.1,29.81,West,265,0.0,1.0,81,0.00,,---,1.07,VWS V14.01,2013-06-23 18:18:00,
2013-06-23 13:24:00,74.2,67.6,29.81,West,265,0.0,1.0,80,0.00,,---,1.07,VWS V14.01,2013-06-23 18:24:00,
2013-06-23 13:30:00,74.3,68.1,29.81,West,266,0.0,1.0,81,0.00,,---,1.07,VWS V14.01,2013-06-23 18:30:00,
2013-06-23 13:36:00,74.2,68.0,29.82,West,265,0.0,2.0,81,0.00,,---,1.07,VWS V14.01,2013-06-23 18:36:00,
2013-06-23 13:42:00,74.2,68.4,29.82,West,266,0.0,2.0,82,0.00,,---,1.07,VWS V14.01,2013-06-23 18:42:00,
2013-06-23 13:48:00,74.2,68.4,29.82,West,265,1.0,2.0,82,0.00,,---,1.07,VWS V14.01,2013-06-23 18:48:00,
2013-06-23 13:54:00,74.3,68.1,29.81,West,266,0.0,3.0,81,0.00,,---,1.07,VWS V14.01,2013-06-23 18:54:00,
2013-06-23 14:00:00,74.2,68.0,29.81,SW,232,0.0,3.0,81,0.00,,---,1.07,VWS V14.01,2013-06-23 19:00:00,
2013-06-23 14:07:00,74.4,68.2,29.81,SW,232,0.0,0.0,81,0.00,,---,1.07,VWS V14.01,2013-06-23 19:07:00,
2013-06-23 14:13:00,74.7,68.5,29.81,SW,232,0.0,2.0,81,0.00,,---,1.07,VWS V14.01,2013-06-23 19:13:00,
2013-06-23 14:19:00,75.1,68.5,29.81,SW,232,0.0,2.0,80,0.00,,---,1.07,VWS V14.01,2013-06-23 19:19:00,
2013-06-23 14:25:00,75.5,69.3,29.81,SW,232,3.0,3.0,81,0.00,,---,1.07,VWS V14.01,2013-06-23 19:25:00,
2013-06-23 14:30:00,75.8,68.8,29.81,SW,232,0.0,3.0,79,0.00,,---,1.07,VWS V14.01,2013-06-23 19:30:00,
2013-06-23 14:37:00,75.8,68.8,29.81,SW,232,0.0,1.0,79,0.00,,---,1.07,VWS V14.01,2013-06-23 19:37:00,
2013-06-23 14:43:00,75.8,68.8,29.81,SW,232,0.0,1.0,79,0.00,,---,1.07,VWS V14.01,2013-06-23 19:43:00,
2013-06-23 14:49:00,75.8,68.5,29.81,SW,232,0.0,1.0,78,0.00,,---,1.07,VWS V14.01,2013-06-23 19:49:00,
2013-06-23 14:55:00,75.8,68.1,29.81,SW,232,0.0,1.0,77,0.00,,---,1.07,VWS V14.01,2013-06-23 19:55:00,
2013-06-23 15:00:00,75.8,68.5,29.81,SW,232,0.0,1.0,78,0.00,,---,1.07,VWS V14.01,2013-06-23 20:00:00,
2013-06-23 15:07:00,75.6,68.3,29.81,SW,232,0.0,0.0,78,0.00,,---,1.07,VWS V14.01,2013-06-23 20:07:00,
2013-06-23 15:13:00,75.7,68.4,29.81,SW,232,0.0,0.0,78,0.00,,---,1.07,VWS V14.01,2013-06-23 20:13:00,
2013-06-23 15:19:00,75.9,68.2,29.80,SE,129,0.0,2.0,77,0.00,,---,1.07,VWS V14.01,2013-06-23 20:19:00,
2013-06-23 15:25:00,75.7,68.0,29.81,SE,129,0.0,2.0,77,0.00,,---,1.07,VWS V14.01,2013-06-23 20:25:00,
2013-06-23 15:30:00,75.6,68.3,29.81,SE,129,0.0,2.0,78,0.00,,---,1.07,VWS V14.01,2013-06-23 20:30:00,
2013-06-23 15:37:00,75.6,68.3,29.81,SE,129,1.0,3.0,78,0.00,,---,1.07,VWS V14.01,2013-06-23 20:37:00,
2013-06-23 15:43:00,75.3,68.3,29.80,ESE,105,0.0,5.0,79,0.00,,---,1.07,VWS V14.01,2013-06-23 20:43:00,
2013-06-23 15:49:00,75.2,68.2,29.81,ESE,105,0.0,5.0,79,0.00,,---,1.07,VWS V14.01,2013-06-23 20:49:00,
2013-06-23 15:55:00,75.1,68.2,29.81,ESE,105,1.0,5.0,79,0.00,,---,1.07,VWS V14.01,2013-06-23 20:55:00,
2013-06-23 16:01:00,75.1,68.5,29.81,ESE,105,0.0,5.0,80,0.00,,---,1.07,VWS V14.01,2013-06-23 21:01:00,
2013-06-23 16:07:00,75.3,68.3,29.80,ESE,107,0.0,4.0,79,0.00,,---,1.07,VWS V14.01,2013-06-23 21:07:00,
2013-06-23 16:13:00,75.6,69.4,29.80,ESE,107,0.0,4.0,81,0.00,,---,1.07,VWS V14.01,2013-06-23 21:13:00,
2013-06-23 16:20:00,76.1,69.8,29.80,ESE,107,0.0,4.0,81,0.00,,---,1.07,VWS V14.01,2013-06-23 21:20:00,
2013-06-23 16:26:00,77.0,70.4,29.80,ESE,107,0.0,4.0,80,0.00,,---,1.07,VWS V14.01,2013-06-23 21:26:00,
2013-06-23 16:32:00,77.4,70.8,29.79,ESE,107,0.0,0.0,80,0.00,,---,1.07,VWS V14.01,2013-06-23 21:32:00,
2013-06-23 16:38:00,77.7,70.7,29.79,ESE,107,0.0,1.0,79,0.00,,---,1.07,VWS V14.01,2013-06-23 21:38:00,
2013-06-23 16:44:00,78.1,70.3,29.79,ESE,107,0.0,1.0,77,0.00,,---,1.07,VWS V14.01,2013-06-23 21:44:00,
2013-06-23 16:50:00,78.5,70.7,29.79,ESE,107,0.0,2.0,77,0.00,,---,1.07,VWS V14.01,2013-06-23 21:50:00,
2013-06-23 16:56:00,78.4,69.8,29.78,ESE,107,0.0,2.0,75,0.00,,---,1.07,VWS V14.01,2013-06-23 21:56:00,
2013-06-23 17:02:00,78.2,69.6,29.78,NE,46,0.0,0.0,75,0.00,,---,1.07,VWS V14.01,2013-06-23 22:02:00,
2013-06-23 17:08:00,78.7,71.3,29.78,NNE,29,2.0,4.0,78,0.00,,---,1.07,VWS V14.01,2013-06-23 22:08:00,
2013-06-23 17:14:00,79.0,70.0,29.78,NNE,29,0.0,4.0,74,0.00,,---,1.07,VWS V14.01,2013-06-23 22:14:00,
2013-06-23 17:20:00,79.5,70.9,29.79,NNE,29,0.0,4.0,75,0.00,,---,1.07,VWS V14.01,2013-06-23 22:20:00,
2013-06-23 17:26:00,79.8,70.8,29.79,NNE,29,0.0,4.0,74,0.00,,---,1.07,VWS V14.01,2013-06-23 22:26:00,
2013-06-23 17:32:00,80.0,70.6,29.79,NNE,29,0.0,0.0,73,0.00,,---,1.07,VWS V14.01,2013-06-23 22:32:00,
2013-06-23 17:38:00,79.6,70.2,29.79,NE,38,0.0,2.0,73,0.00,,---,1.07,VWS V14.01,2013-06-23 22:38:00,
2013-06-23 17:44:00,79.0,69.6,29.79,ENE,74,0.0,4.0,73,0.00,,---,1.07,VWS V14.01,2013-06-23 22:44:00,
2013-06-23 17:50:00,78.9,69.9,29.79,ENE,74,0.0,4.0,74,0.00,,---,1.07,VWS V14.01,2013-06-23 22:50:00,
2013-06-23 17:56:00,78.8,69.8,29.79,ENE,74,0.0,4.0,74,0.00,,---,1.07,VWS V14.01,2013-06-23 22:56:00,
2013-06-23 18:02:00,79.2,70.2,29.79,ENE,74,0.0,0.0,74,0.00,,---,1.07,VWS V14.01,2013-06-23 23:02:00,
2013-06-23 18:08:00,79.4,70.0,29.79,ENE,74,0.0,1.0,73,0.00,,---,1.07,VWS V14.01,2013-06-23 23:08:00,
2013-06-23 18:14:00,79.5,70.1,29.78,ENE,74,0.0,1.0,73,0.00,,---,1.07,VWS V14.01,2013-06-23 23:14:00,
2013-06-23 18:20:00,79.1,69.3,29.78,ENE,74,0.0,2.0,72,0.00,,---,1.07,VWS V14.01,2013-06-23 23:20:00,
2013-06-23 18:26:00,78.8,69.0,29.78,ENE,74,0.0,2.0,72,0.00,,---,1.07,VWS V14.01,2013-06-23 23:26:00,
2013-06-23 18:32:00,78.8,70.2,29.78,ENE,74,0.0,2.0,75,0.00,,---,1.07,VWS V14.01,2013-06-23 23:32:00,
2013-06-23 18:38:00,78.7,69.7,29.78,ENE,74,0.0,2.0,74,0.00,,---,1.07,VWS V14.01,2013-06-23 23:38:00,
2013-06-23 18:45:00,78.7,69.3,29.78,ENE,74,0.0,3.0,73,0.00,,---,1.07,VWS V14.01,2013-06-23 23:45:00,
2013-06-23 18:51:00,78.7,70.1,29.78,ENE,74,0.0,3.0,75,0.00,,---,1.07,VWS V14.01,2013-06-23 23:51:00,
2013-06-23 18:57:00,78.7,69.7,29.78,ENE,72,0.0,3.0,74,0.00,,---,1.07,VWS V14.01,2013-06-23 23:57:00,
2013-06-23 19:03:00,78.7,70.1,29.78,ENE,73,0.0,0.0,75,0.00,,---,1.07,VWS V14.01,2013-06-24 00:03:00,
2013-06-23 19:09:00,78.6,70.0,29.78,ENE,73,0.0,0.0,75,0.00,,---,1.07,VWS V14.01,2013-06-24 00:09:00,
2013-06-23 19:15:00,78.5,69.5,29.78,ENE,73,0.0,1.0,74,0.00,,---,1.07,VWS V14.01,2013-06-24 00:15:00,
2013-06-23 19:21:00,78.4,69.4,29.78,ENE,73,0.0,1.0,74,0.00,,---,1.07,VWS V14.01,2013-06-24 00:21:00,
2013-06-23 19:27:00,78.3,70.1,29.78,ENE,73,0.0,1.0,76,0.00,,---,1.07,VWS V14.01,2013-06-24 00:27:00,
2013-06-23 19:33:00,78.2,70.0,29.78,ENE,73,0.0,0.0,76,0.00,,---,1.07,VWS V14.01,2013-06-24 00:33:00,
2013-06-23 19:39:00,78.0,69.8,29.78,ENE,72,0.0,2.0,76,0.00,,---,1.07,VWS V14.01,2013-06-24 00:39:00,
2013-06-23 19:45:00,77.9,69.7,29.78,East,92,1.0,3.0,76,0.00,,---,1.07,VWS V14.01,2013-06-24 00:45:00,
2013-06-23 19:51:00,77.6,69.4,29.78,East,92,0.0,3.0,76,0.00,,---,1.07,VWS V14.01,2013-06-24 00:51:00,
2013-06-23 19:57:00,77.5,69.7,29.78,East,92,0.0,3.0,77,0.00,,---,1.07,VWS V14.01,2013-06-24 00:57:00,
2013-06-23 20:03:00,77.3,69.5,29.78,East,92,0.0,0.0,77,0.00,,---,1.07,VWS V14.01,2013-06-24 01:03:00,
2013-06-23 20:09:00,77.1,69.7,29.78,East,92,0.0,0.0,78,0.00,,---,1.07,VWS V14.01,2013-06-24 01:09:00,
2013-06-23 20:15:00,76.9,69.9,29.77,East,92,0.0,0.0,79,0.00,,---,1.07,VWS V14.01,2013-06-24 01:15:00,
2013-06-23 20:21:00,76.7,70.1,29.78,East,92,0.0,0.0,80,0.00,,---,1.07,VWS V14.01,2013-06-24 01:21:00,
2013-06-23 20:27:00,76.5,69.9,29.78,East,92,0.0,0.0,80,0.00,,---,1.07,VWS V14.01,2013-06-24 01:27:00,
2013-06-23 20:33:00,76.4,69.8,29.78,East,92,0.0,0.0,80,0.00,,---,1.07,VWS V14.01,2013-06-24 01:33:00,
2013-06-23 20:39:00,76.2,69.6,29.79,East,92,0.0,0.0,80,0.00,,---,1.07,VWS V14.01,2013-06-24 01:39:00,
2013-06-23 20:45:00,76.2,69.6,29.79,East,92,0.0,0.0,80,0.00,,---,1.07,VWS V14.01,2013-06-24 01:45:00,
2013-06-23 20:51:00,76.2,69.9,29.79,East,92,0.0,0.0,81,0.00,,---,1.07,VWS V14.01,2013-06-24 01:51:00,
2013-06-23 20:58:00,76.2,69.6,29.79,East,92,0.0,0.0,80,0.00,,---,1.07,VWS V14.01,2013-06-24 01:58:00,
2013-06-23 21:04:00,76.2,69.9,29.78,East,92,0.0,0.0,81,0.00,,---,1.07,VWS V14.01,2013-06-24 02:04:00,
2013-06-23 21:10:00,76.0,69.8,29.79,East,92,0.0,0.0,81,0.00,,---,1.07,VWS V14.01,2013-06-24 02:10:00,
2013-06-23 21:16:00,75.9,69.7,29.79,East,92,0.0,0.0,81,0.00,,---,1.07,VWS V14.01,2013-06-24 02:16:00,
2013-06-23 21:22:00,75.8,69.6,29.80,East,92,0.0,0.0,81,0.00,,---,1.07,VWS V14.01,2013-06-24 02:22:00,
2013-06-23 21:28:00,75.8,69.6,29.81,East,92,2.0,2.0,81,0.00,,---,1.07,VWS V14.01,2013-06-24 02:28:00,
2013-06-23 21:34:00,75.8,69.6,29.80,East,92,0.0,0.0,81,0.00,,---,1.07,VWS V14.01,2013-06-24 02:34:00,
2013-06-23 21:40:00,75.8,69.6,29.81,East,92,0.0,1.0,81,0.00,,---,1.07,VWS V14.01,2013-06-24 02:40:00,
2013-06-23 21:46:00,75.8,69.6,29.80,East,92,0.0,1.0,81,0.00,,---,1.07,VWS V14.01,2013-06-24 02:46:00,
2013-06-23 21:52:00,75.7,69.1,29.80,East,92,0.0,1.0,80,0.00,,---,1.07,VWS V14.01,2013-06-24 02:52:00,
2013-06-23 21:58:00,75.7,69.5,29.81,East,92,0.0,1.0,81,0.00,,---,1.07,VWS V14.01,2013-06-24 02:58:00,
2013-06-23 22:04:00,75.6,69.4,29.81,East,92,0.0,0.0,81,0.00,,---,1.07,VWS V14.01,2013-06-24 03:04:00,
2013-06-23 22:10:00,75.5,69.3,29.81,East,92,0.0,0.0,81,0.00,,---,1.07,VWS V14.01,2013-06-24 03:10:00,
2013-06-23 22:16:00,75.4,69.2,29.81,East,92,0.0,0.0,81,0.00,,---,1.07,VWS V14.01,2013-06-24 03:16:00,
2013-06-23 22:22:00,75.3,69.4,29.82,East,92,0.0,0.0,82,0.00,,---,1.07,VWS V14.01,2013-06-24 03:22:00,
2013-06-23 22:28:00,75.1,69.2,29.82,East,92,0.0,0.0,82,0.00,,---,1.07,VWS V14.01,2013-06-24 03:28:00,
2013-06-23 22:34:00,74.9,69.4,29.82,East,92,0.0,0.0,83,0.00,,---,1.07,VWS V14.01,2013-06-24 03:34:00,
2013-06-23 22:40:00,74.9,69.7,29.82,East,88,1.0,3.0,84,0.00,,---,1.07,VWS V14.01,2013-06-24 03:40:00,
2013-06-23 22:46:00,74.9,70.1,29.82,ESE,121,0.0,3.0,85,0.00,,---,1.07,VWS V14.01,2013-06-24 03:46:00,
2013-06-23 22:52:00,74.9,70.1,29.82,East,100,2.0,3.0,85,0.00,,---,1.07,VWS V14.01,2013-06-24 03:52:00,
2013-06-23 22:59:00,75.0,70.2,29.82,ESE,117,0.0,5.0,85,0.00,,---,1.07,VWS V14.01,2013-06-24 03:59:00,
2013-06-23 23:03:00,75.0,70.2,29.82,ESE,114,3.0,5.0,85,0.00,,---,1.07,VWS V14.01,2013-06-24 04:03:00,
2013-06-23 23:05:00,75.0,70.2,29.82,ESE,115,1.0,5.0,85,0.00,,---,1.07,VWS V14.01,2013-06-24 04:05:00,
2013-06-23 23:07:00,74.9,70.1,29.82,ESE,113,0.0,5.0,85,0.00,,---,1.07,VWS V14.01,2013-06-24 04:07:00,
2013-06-23 23:13:00,74.9,70.1,29.82,ESE,117,0.0,5.0,85,0.00,,---,1.07,VWS V14.01,2013-06-24 04:13:00,
2013-06-23 23:15:00,74.9,70.1,29.82,ESE,117,0.0,5.0,85,0.00,,---,1.07,VWS V14.01,2013-06-24 04:15:00,
2013-06-23 23:21:00,74.8,70.0,29.82,ESE,117,0.0,5.0,85,0.00,,---,1.07,VWS V14.01,2013-06-24 04:21:00,
2013-06-23 23:25:00,74.8,70.0,29.82,ESE,117,0.0,5.0,85,0.00,,---,1.07,VWS V14.01,2013-06-24 04:25:00,
2013-06-23 23:30:00,74.7,69.9,29.82,ESE,117,0.0,5.0,85,0.00,,---,1.07,VWS V14.01,2013-06-24 04:30:00,
2013-06-23 23:37:00,74.6,70.1,29.82,ESE,117,0.0,3.0,86,0.00,,---,1.07,VWS V14.01,2013-06-24 04:37:00,
2013-06-23 23:43:00,74.6,70.1,29.82,ESE,117,0.0,3.0,86,0.00,,---,1.07,VWS V14.01,2013-06-24 04:43:00,
2013-06-23 23:49:00,74.7,70.2,29.81,ESE,117,0.0,3.0,86,0.00,,---,1.07,VWS V14.01,2013-06-24 04:49:00,
2013-06-23 23:55:00,74.7,70.6,29.81,East,93,0.0,6.0,87,0.00,,---,1.07,VWS V14.01,2013-06-24 04:55:00,